sat.trackr.live / text

‹ back to catalog

STARLINK-30981

NORAD 58494 · 2023-186X

PAYLOAD ACTIVE UNKNOWN

§ Identity

Operator
Country
US
Launch date
2023-12-03
Launch site
AFETR
Launch vehicle
Mass (kg)
RCS (m²)

Purposes: comms

External: N2YO · Heavens-Above · Gunter

§ Orbital elements

Epoch: 2026-09-19T09:24:02.464416Z

Period
94.27 min
Inclination
43.0043°
Eccentricity
0.0001066
Mean motion
15.27579715 rev/d
Perigee alt
482.3 km
Apogee alt
483.8 km
Semi-major
6,861.2 km
B*
2.2172e-5
RAAN
49.4397°
Arg perigee
273.8072°
Mean anomaly
86.2658°
Rev number
15,551

§ Raw data

STARLINK-309811 58494U 23186X   26262.39169519  .00000348  00000+0  22172-4 0  99932 58494  43.0043  49.4397 0001066 273.8072  86.2658 15.27579715155515

JSON: /api/v1/satellites/58494 · /tle

For live sub-satellite position, see the globe view (requires WebGL).

§ Visibility from observer

Set your observer location to see the next 7 days of passes ≥ 10°. The values pass through the URL so the page stays shareable.

No JS? Fill the form by hand. The geolocation button needs JavaScript.